Check out our new BloomSky Weather System.

Active alerts


No alerts


Thunder radar  blitzortung!


Rain radar more information rain snow radar


Visit our other weather sites:

Template documentation
and downloads

And another site



Weather Underground History page Text

Daily Summary for January 14, 2017 Units:  Metric    English   Both
« Previous Day
Next Day »
Daily Weekly Monthly Yearly Custom
  High: Low: Average:
Temperature: -17.8 °C 16.7 °C 20.6 °C
Dew Point: -17.8 °C 16.2 °C 18.8 °C
Humidity: Humidity % 67 % 90 %
Wind Speed: 0 km/h 0 km/h 4.3 km/h
Wind Gust: 0 km/h - -
Wind:- - SE
Pressure: 0 hPa 1023.6 hPa -
Precipitation: 0.25 mm    
Historical Graphs
 
 
Tabular Data for January 14, 2017
Time Temperature Dew Point Pressure Wind Wind Speed Wind Gust Humidity Rainfall Rate (Hourly)
-17.8 °C -17.8 °C 0 hPa Calm     Humidity % 0 mm
00:00 20.3 °C 19.8 °C 1026.6 hPa SSE 4.8 km/h 12.9 km/h 97 % 0 mm
00:05 20.3 °C 19.8 °C 1026.6 hPa SE 6.4 km/h 11.3 km/h 97 % 0 mm
00:10 20.3 °C 19.8 °C 1026.6 hPa SE 6.4 km/h 16.1 km/h 97 % 0 mm
00:15 20.3 °C 19.8 °C 1026.6 hPa SSE 4.8 km/h 16.1 km/h 97 % 0 mm
00:20 20.3 °C 19.8 °C 1026.6 hPa SSE 4.8 km/h 16.1 km/h 97 % 0 mm
00:25 20.3 °C 19.8 °C 1026.6 hPa SSW 6.4 km/h 12.9 km/h 97 % 0 mm
00:30 20.2 °C 19.7 °C 1026.6 hPa South 6.4 km/h 12.9 km/h 97 % 0 mm
00:35 20.2 °C 19.7 °C 1026.6 hPa SE 8 km/h 11.3 km/h 97 % 0 mm
00:40 20.2 °C 19.9 °C 1026.6 hPa SSE 3.2 km/h 11.3 km/h 98 % 0 mm
00:45 20.2 °C 19.9 °C 1026.6 hPa East 4.8 km/h 9.7 km/h 98 % 0 mm
00:50 20.2 °C 19.9 °C 1026.6 hPa SSE 4.8 km/h 11.3 km/h 98 % 0 mm
00:55 20.2 °C 19.9 °C 1026.6 hPa SE 4.8 km/h 11.3 km/h 98 % 0 mm
01:00 20.2 °C 19.9 °C 1026.6 hPa SSE 3.2 km/h 11.3 km/h 98 % 0 mm
01:05 20.2 °C 19.9 °C 1026.6 hPa SSE 6.4 km/h 9.7 km/h 98 % 0 mm
01:10 20.2 °C 19.9 °C 1026.6 hPa ESE 3.2 km/h 11.3 km/h 98 % 0 mm
01:15 20.2 °C 19.9 °C 1026.6 hPa South 1.6 km/h 11.3 km/h 98 % 0 mm
01:20 20.2 °C 19.9 °C 1026.6 hPa ESE 3.2 km/h 11.3 km/h 98 % 0 mm
01:25 20.2 °C 19.9 °C 1026.6 hPa Calm   9.7 km/h 98 % 0 mm
01:30 20.3 °C 20 °C 1026.6 hPa SSE 1.6 km/h 6.4 km/h 98 % 0 mm
01:35 20.3 °C 20 °C 1026.6 hPa SE 3.2 km/h 6.4 km/h 98 % 0 mm
01:40 20.3 °C 20 °C 1026.6 hPa ESE 4.8 km/h 6.4 km/h 98 % 0 mm
01:45 20.3 °C 20 °C 1026.6 hPa SE 3.2 km/h 8 km/h 98 % 0 mm
01:50 20.3 °C 20 °C 1026.6 hPa Calm   8 km/h 98 % 0 mm
01:55 20.3 °C 20 °C 1026.6 hPa ESE 3.2 km/h 8 km/h 98 % 0 mm
02:01 20.3 °C 20 °C 1026.6 hPa ESE 9.7 km/h 9.7 km/h 98 % 0 mm
02:05 20.3 °C 20 °C 1026.6 hPa SE 1.6 km/h 12.9 km/h 98 % 0 mm
02:11 20.3 °C 20 °C 1026.6 hPa SE 3.2 km/h 12.9 km/h 98 % 0 mm
02:16 20.3 °C 20 °C 1026.6 hPa ESE 6.4 km/h 12.9 km/h 98 % 0 mm
02:21 20.3 °C 20 °C 1026.6 hPa ESE 6.4 km/h 8 km/h 98 % 0 mm
02:26 20.3 °C 20 °C 1026.6 hPa SE 6.4 km/h 8 km/h 98 % 0 mm
02:31 20.3 °C 20 °C 1026.6 hPa SE 4.8 km/h 12.9 km/h 98 % 0 mm
02:36 20.3 °C 20 °C 1026.6 hPa ESE 6.4 km/h 12.9 km/h 98 % 0 mm
02:41 20.3 °C 20 °C 1026.6 hPa SE 3.2 km/h 12.9 km/h 98 % 0 mm
02:46 20.3 °C 20 °C 1026.6 hPa SSE 4.8 km/h 12.9 km/h 98 % 0 mm
02:51 20.3 °C 20 °C 1026.6 hPa ENE 3.2 km/h 12.9 km/h 98 % 0 mm
02:56 20.3 °C 20 °C 1026.6 hPa SE 4.8 km/h 9.7 km/h 98 % 0 mm
03:01 20.2 °C 19.9 °C 1026.6 hPa SE 4.8 km/h 9.7 km/h 98 % 0 mm
03:06 20.2 °C 19.9 °C 1026.6 hPa East 4.8 km/h 9.7 km/h 98 % 0 mm
03:11 20.2 °C 19.9 °C 1026.6 hPa SE 4.8 km/h 11.3 km/h 98 % 0 mm
03:16 20.2 °C 19.9 °C 1026.6 hPa South 3.2 km/h 11.3 km/h 98 % 0 mm
03:21 20.2 °C 19.9 °C 1026.6 hPa ESE 3.2 km/h 11.3 km/h 98 % 0 mm
03:26 20.2 °C 19.9 °C 1026.6 hPa East 3.2 km/h 8 km/h 98 % 0 mm
03:31 20.2 °C 19.9 °C 1026.6 hPa SE 6.4 km/h 8 km/h 98 % 0 mm
03:36 20.1 °C 19.8 °C 1026.6 hPa ESE 3.2 km/h 8 km/h 98 % 0 mm
03:41 20.1 °C 19.8 °C 1026.6 hPa ESE 1.6 km/h 8 km/h 98 % 0 mm
03:46 20.1 °C 19.8 °C 1026.6 hPa ESE 1.6 km/h 8 km/h 98 % 0 mm
03:51 20.1 °C 19.8 °C 1026.6 hPa ESE 3.2 km/h 8 km/h 98 % 0 mm
03:56 20.1 °C 19.8 °C 1026.6 hPa SE 4.8 km/h 9.7 km/h 98 % 0 mm
04:01 20.1 °C 19.8 °C 1026.3 hPa ESE 1.6 km/h 11.3 km/h 98 % 0 mm
04:06 20.1 °C 19.8 °C 1026.3 hPa SE 3.2 km/h 11.3 km/h 98 % 0 mm
04:11 20.1 °C 19.8 °C 1026.6 hPa East 4.8 km/h 11.3 km/h 98 % 0 mm
04:16 20.1 °C 19.8 °C 1026.6 hPa SE 8 km/h 8 km/h 98 % 0 mm
04:21 20.1 °C 19.8 °C 1026.3 hPa SSE 3.2 km/h 8 km/h 98 % 0 mm
04:26 20 °C 19.7 °C 1026.3 hPa East 6.4 km/h 14.5 km/h 98 % 0 mm
04:31 20 °C 19.7 °C 1026.3 hPa ESE 8 km/h 14.5 km/h 98 % 0 mm
04:36 20 °C 19.7 °C 1026.3 hPa SE 3.2 km/h 14.5 km/h 98 % 0 mm
04:41 20 °C 19.7 °C 1026.6 hPa SSE 3.2 km/h 11.3 km/h 98 % 0 mm
04:46 20 °C 19.7 °C 1026.6 hPa SE 4.8 km/h 11.3 km/h 98 % 0 mm
04:51 20 °C 19.7 °C 1026.3 hPa ESE 3.2 km/h 11.3 km/h 98 % 0 mm
04:56 19.9 °C 19.6 °C 1026.3 hPa East 4.8 km/h 9.7 km/h 98 % 0 mm
05:01 19.9 °C 19.6 °C 1026.6 hPa SE 3.2 km/h 9.7 km/h 98 % 0 mm
05:06 19.9 °C 19.6 °C 1026.6 hPa ESE 3.2 km/h 8 km/h 98 % 0 mm
05:11 19.9 °C 19.6 °C 1026.6 hPa SE 6.4 km/h 9.7 km/h 98 % 0 mm
05:16 19.9 °C 19.6 °C 1026.6 hPa SSE 4.8 km/h 9.7 km/h 98 % 0 mm
05:21 19.9 °C 19.6 °C 1026.6 hPa SSE 4.8 km/h 9.7 km/h 98 % 0 mm
05:26 19.9 °C 19.6 °C 1026.6 hPa SE 3.2 km/h 11.3 km/h 98 % 0 mm
05:31 19.8 °C 19.5 °C 1026.6 hPa SE 1.6 km/h 11.3 km/h 98 % 0 mm
05:36 19.8 °C 19.5 °C 1026.6 hPa SE 3.2 km/h 11.3 km/h 98 % 0 mm
05:41 19.8 °C 19.5 °C 1026.6 hPa ESE 4.8 km/h 8 km/h 98 % 0 mm
05:46 19.8 °C 19.5 °C 1026.6 hPa SE 8 km/h 8 km/h 98 % 0 mm
05:51 19.8 °C 19.5 °C 1026.6 hPa ESE 1.6 km/h 9.7 km/h 98 % 0 mm
05:57 19.8 °C 19.5 °C 1026.6 hPa East 3.2 km/h 9.7 km/h 98 % 0 mm
06:02 19.8 °C 19.5 °C 1026.6 hPa Calm   9.7 km/h 98 % 0 mm
06:07 19.8 °C 19.5 °C 1026.6 hPa SE 3.2 km/h 8 km/h 98 % 0 mm
06:12 19.8 °C 19.5 °C 1026.6 hPa East 1.6 km/h 8 km/h 98 % 0 mm
06:17 19.8 °C 19.5 °C 1026.6 hPa East 3.2 km/h 8 km/h 98 % 0 mm
06:22 19.8 °C 19.5 °C 1026.6 hPa SE 1.6 km/h 8 km/h 98 % 0 mm
06:27 19.7 °C 19.4 °C 1026.6 hPa SE 4.8 km/h 8 km/h 98 % 0 mm
06:32 19.7 °C 19.4 °C 1026.6 hPa ESE 3.2 km/h 6.4 km/h 98 % 0 mm
06:37 19.7 °C 19.4 °C 1026.6 hPa East 1.6 km/h 8 km/h 98 % 0 mm
06:42 19.7 °C 19.4 °C 1026.6 hPa ENE 3.2 km/h 8 km/h 98 % 0 mm
06:47 19.7 °C 19.5 °C 1026.6 hPa ENE 4.8 km/h 8 km/h 99 % 0 mm
06:52 19.7 °C 19.5 °C 1026.6 hPa East 3.2 km/h 8 km/h 99 % 0 mm
06:57 19.7 °C 19.5 °C 1026.6 hPa SE 6.4 km/h 8 km/h 99 % 0 mm
07:02 19.7 °C 19.5 °C 1027 hPa ESE 1.6 km/h 8 km/h 99 % 0 mm
07:07 19.7 °C 19.5 °C 1027 hPa ESE 3.2 km/h 8 km/h 99 % 0 mm
07:12 19.7 °C 19.5 °C 1027 hPa SE 4.8 km/h 6.4 km/h 99 % 0 mm
07:17 19.7 °C 19.5 °C 1027 hPa ENE 4.8 km/h 6.4 km/h 99 % 0 mm
07:22 19.7 °C 19.5 °C 1027 hPa East 4.8 km/h 8 km/h 99 % 0 mm
07:27 19.6 °C 19.4 °C 1027 hPa ESE 1.6 km/h 8 km/h 99 % 0 mm
07:32 19.6 °C 19.4 °C 1027.3 hPa ESE 1.6 km/h 8 km/h 99 % 0 mm
07:37 19.6 °C 19.4 °C 1027.3 hPa East 4.8 km/h 11.3 km/h 99 % 0 mm
07:42 19.6 °C 19.4 °C 1027.3 hPa ESE 3.2 km/h 11.3 km/h 99 % 0 mm
07:47 19.6 °C 19.4 °C 1027.3 hPa SSE 3.2 km/h 12.9 km/h 99 % 0 mm
07:52 19.6 °C 19.4 °C 1027.3 hPa East 3.2 km/h 12.9 km/h 99 % 0 mm
07:57 19.7 °C 19.5 °C 1027.3 hPa East 4.8 km/h 12.9 km/h 99 % 0 mm
08:02 19.7 °C 19.5 °C 1027.3 hPa East 1.6 km/h 12.9 km/h 99 % 0 mm
08:07 19.7 °C 19.5 °C 1027.3 hPa East 6.4 km/h 12.9 km/h 99 % 0 mm
08:12 19.7 °C 19.5 °C 1027.3 hPa SE 6.4 km/h 11.3 km/h 99 % 0 mm
08:17 19.7 °C 19.5 °C 1027.3 hPa SE 8 km/h 11.3 km/h 99 % 0 mm
08:22 19.7 °C 19.5 °C 1027.3 hPa South 3.2 km/h 11.3 km/h 99 % 0 mm
08:27 19.8 °C 19.5 °C 1027.3 hPa ESE 4.8 km/h 9.7 km/h 98 % 0 mm
08:32 19.8 °C 19.5 °C 1027.7 hPa ESE 3.2 km/h 11.3 km/h 98 % 0 mm
08:37 19.8 °C 19.5 °C 1027.7 hPa ESE 3.2 km/h 11.3 km/h 98 % 0 mm
08:42 19.8 °C 19.5 °C 1027.7 hPa SE 3.2 km/h 11.3 km/h 98 % 0 mm
08:47 19.9 °C 19.6 °C 1027.7 hPa SSE 1.6 km/h 11.3 km/h 98 % 0 mm
08:52 19.9 °C 19.6 °C 1027.7 hPa ESE 4.8 km/h 11.3 km/h 98 % 0 mm
08:57 20 °C 19.7 °C 1027.7 hPa East 4.8 km/h 11.3 km/h 98 % 0 mm
09:02 20.1 °C 19.8 °C 1027.7 hPa ESE 4.8 km/h 11.3 km/h 98 % 0.25 mm
09:07 20.1 °C 19.8 °C 1027.7 hPa NE 1.6 km/h 11.3 km/h 98 % 0.25 mm
09:12 20.2 °C 19.9 °C 1027.7 hPa SE 6.4 km/h 11.3 km/h 98 % 0.25 mm
09:17 20.2 °C 19.7 °C 1027.7 hPa NE 3.2 km/h 11.3 km/h 97 % 0.25 mm
09:23 20.3 °C 19.8 °C 1027.7 hPa SSE 3.2 km/h 11.3 km/h 97 % 0.25 mm
09:28 20.3 °C 19.8 °C 1028 hPa East 8 km/h 11.3 km/h 97 % 0.25 mm
09:33 20.4 °C 19.7 °C 1027.7 hPa SE 6.4 km/h 14.5 km/h 96 % 0.25 mm
09:38 20.4 °C 19.7 °C 1028 hPa SE 1.6 km/h 16.1 km/h 96 % 0.25 mm
09:43 20.6 °C 19.9 °C 1028 hPa SSE 4.8 km/h 16.1 km/h 96 % 0.25 mm
09:48 20.6 °C 19.8 °C 1028 hPa ENE 4.8 km/h 16.1 km/h 95 % 0.25 mm
09:53 20.6 °C 19.8 °C 1028 hPa East 4.8 km/h 11.3 km/h 95 % 0.25 mm
09:58 20.6 °C 19.6 °C 1028 hPa East 6.4 km/h 16.1 km/h 94 % 0.25 mm
10:03 20.7 °C 19.7 °C 1028.3 hPa SSE 4.8 km/h 16.1 km/h 94 % 0 mm
10:08 20.7 °C 19.7 °C 1028.3 hPa SE 1.6 km/h 16.1 km/h 94 % 0 mm
10:13 20.7 °C 19.7 °C 1028.3 hPa Calm   16.1 km/h 94 % 0 mm
10:18 20.7 °C 19.7 °C 1028.3 hPa ESE 4.8 km/h 12.9 km/h 94 % 0 mm
10:23 20.7 °C 19.7 °C 1028.3 hPa ENE 8 km/h 12.9 km/h 94 % 0 mm
10:28 20.7 °C 19.7 °C 1028.3 hPa ESE 6.4 km/h 14.5 km/h 94 % 0 mm
10:33 20.8 °C 19.8 °C 1028 hPa South 4.8 km/h 14.5 km/h 94 % 0 mm
10:38 21 °C 19.8 °C 1028 hPa SE 1.6 km/h 14.5 km/h 93 % 0 mm
10:43 21.2 °C 20 °C 1028 hPa ENE 1.6 km/h 11.3 km/h 93 % 0 mm
10:48 21.3 °C 19.9 °C 1028 hPa ESE 3.2 km/h 11.3 km/h 92 % 0 mm
10:53 21.3 °C 19.9 °C 1028 hPa SE 1.6 km/h 6.4 km/h 92 % 0 mm
10:58 21.4 °C 19.9 °C 1028 hPa East 3.2 km/h 8 km/h 91 % 0 mm
11:03 21.4 °C 19.9 °C 1028 hPa SE 3.2 km/h 8 km/h 91 % 0 mm
11:08 21.4 °C 19.9 °C 1028 hPa ESE 3.2 km/h 8 km/h 91 % 0 mm
11:13 21.6 °C 20.1 °C 1028 hPa ESE 3.2 km/h 8 km/h 91 % 0 mm
11:18 21.8 °C 20.3 °C 1027.7 hPa ESE 1.6 km/h 8 km/h 91 % 0 mm
11:23 21.9 °C 20 °C 1027.7 hPa ESE 4.8 km/h 9.7 km/h 89 % 0 mm
11:28 22.1 °C 20.2 °C 1027.7 hPa SE 1.6 km/h 14.5 km/h 89 % 0 mm
11:33 22.2 °C 20.1 °C 1027.7 hPa East 3.2 km/h 14.5 km/h 88 % 0 mm
11:38 22.3 °C 20 °C 1027.3 hPa ESE 6.4 km/h 14.5 km/h 87 % 0 mm
11:43 22.4 °C 20.1 °C 1027.3 hPa SE 8 km/h 9.7 km/h 87 % 0 mm
11:48 22.4 °C 20.1 °C 1027.3 hPa ESE 3.2 km/h 12.9 km/h 87 % 0 mm
11:53 22.6 °C 20.1 °C 1027 hPa ENE 4.8 km/h 12.9 km/h 86 % 0 mm
11:58 22.6 °C 19.9 °C 1027 hPa South 3.2 km/h 12.9 km/h 85 % 0 mm
12:03 22.6 °C 19.9 °C 1027 hPa SE 3.2 km/h 14.5 km/h 85 % 0 mm
12:08 22.5 °C 19.9 °C 1027 hPa SE 6.4 km/h 14.5 km/h 85 % 0 mm
12:13 22.6 °C 19.9 °C 1027 hPa SSE 3.2 km/h 14.5 km/h 85 % 0 mm
12:18 22.7 °C 20 °C 1026.6 hPa Calm   12.9 km/h 85 % 0 mm
12:24 22.7 °C 19.9 °C 1026.6 hPa Calm   12.9 km/h 84 % 0 mm
12:29 22.8 °C 20 °C 1026.3 hPa SSE 4.8 km/h 8 km/h 84 % 0 mm
12:34 22.9 °C 19.9 °C 1026.3 hPa East 11.3 km/h 11.3 km/h 83 % 0 mm
12:39 22.8 °C 19.6 °C 1026.3 hPa SE 8 km/h 14.5 km/h 82 % 0 mm
12:44 22.9 °C 19.9 °C 1026 hPa East 11.3 km/h 14.5 km/h 83 % 0 mm
12:49 22.9 °C 19.7 °C 1026 hPa SSE 4.8 km/h 14.5 km/h 82 % 0 mm
12:54 23 °C 20 °C 1026 hPa ESE 9.7 km/h 12.9 km/h 83 % 0 mm
12:59 23.1 °C 19.3 °C 1026 hPa SE 4.8 km/h 14.5 km/h 79 % 0 mm
13:04 23.2 °C 19.6 °C 1025.6 hPa SSE 4.8 km/h 14.5 km/h 80 % 0 mm
13:09 23.3 °C 19.7 °C 1025.6 hPa SSE 3.2 km/h 14.5 km/h 80 % 0 mm
13:14 23.3 °C 19.7 °C 1025.3 hPa ESE 6.4 km/h 14.5 km/h 80 % 0 mm
13:19 23.6 °C 19.5 °C 1025.3 hPa SE 6.4 km/h 16.1 km/h 78 % 0 mm
13:24 23.7 °C 19.2 °C 1025.3 hPa ESE 6.4 km/h 17.7 km/h 76 % 0 mm
13:29 23.9 °C 19.4 °C 1025.3 hPa SE 8 km/h 17.7 km/h 76 % 0 mm
13:34 23.9 °C 19.2 °C 1025.3 hPa SSE 6.4 km/h 17.7 km/h 75 % 0 mm
13:39 23.9 °C 19 °C 1024.9 hPa ENE 6.4 km/h 14.5 km/h 74 % 0 mm
13:44 24.2 °C 19.7 °C 1024.9 hPa East 4.8 km/h 14.5 km/h 76 % 0 mm
13:49 24.4 °C 19.2 °C 1024.9 hPa ESE 11.3 km/h 12.9 km/h 73 % 0 mm
13:54 24.5 °C 19.1 °C 1024.9 hPa ESE 9.7 km/h 14.5 km/h 72 % 0 mm
13:59 24.2 °C 18.2 °C 1024.9 hPa ESE 8 km/h 14.5 km/h 69 % 0 mm
14:04 23.9 °C 18.1 °C 1024.9 hPa East 14.5 km/h 14.5 km/h 70 % 0 mm
14:09 23.7 °C 18.4 °C 1024.9 hPa SSE 9.7 km/h 16.1 km/h 72 % 0 mm
14:14 23.8 °C 18.7 °C 1024.9 hPa SE 11.3 km/h 16.1 km/h 73 % 0 mm
14:19 23.9 °C 18.3 °C 1024.9 hPa SSW 12.9 km/h 16.1 km/h 71 % 0 mm
14:24 24.1 °C 18.7 °C 1024.6 hPa SSE 9.7 km/h 16.1 km/h 72 % 0 mm
14:29 24.1 °C 18.5 °C 1024.6 hPa South 8 km/h 16.1 km/h 71 % 0 mm
14:34 24.2 °C 18.4 °C 1024.6 hPa SSE 4.8 km/h 16.1 km/h 70 % 0 mm
14:39 24.2 °C 18.4 °C 1024.6 hPa SSE 4.8 km/h 16.1 km/h 70 % 0 mm
14:44 24.1 °C 18.5 °C 1024.6 hPa SE 6.4 km/h 16.1 km/h 71 % 0 mm
14:49 24.1 °C 18.7 °C 1024.6 hPa SE 1.6 km/h 20.9 km/h 72 % 0 mm
14:54 24.1 °C 18.3 °C 1024.6 hPa ESE 8 km/h 20.9 km/h 70 % 0 mm
14:59 24.2 °C 18.4 °C 1024.3 hPa SE 1.6 km/h 20.9 km/h 70 % 0 mm
15:04 24.4 °C 18.1 °C 1024.6 hPa ESE 14.5 km/h 14.5 km/h 68 % 0 mm
15:09 24.3 °C 18 °C 1024.3 hPa ESE 4.8 km/h 16.1 km/h 68 % 0 mm
15:14 24.4 °C 18.1 °C 1024.3 hPa SSE 9.7 km/h 16.1 km/h 68 % 0 mm
15:19 24.6 °C 18.3 °C 1024.3 hPa SE 9.7 km/h 16.1 km/h 68 % 0 mm
15:24 24.5 °C 18 °C 1024.3 hPa South 11.3 km/h 12.9 km/h 67 % 0 mm
15:29 24.3 °C 18 °C 1024.3 hPa SE 4.8 km/h 14.5 km/h 68 % 0 mm
15:34 24.3 °C 18.2 °C 1024.3 hPa SE 4.8 km/h 17.7 km/h 69 % 0 mm
15:39 24.2 °C 18.2 °C 1024.3 hPa South 8 km/h 17.7 km/h 69 % 0 mm
15:44 24.2 °C 18.4 °C 1024.3 hPa ESE 3.2 km/h 17.7 km/h 70 % 0 mm
15:49 24.1 °C 18.3 °C 1024.3 hPa South 8 km/h 14.5 km/h 70 % 0 mm
15:54 23.9 °C 18.3 °C 1024.3 hPa SSW 8 km/h 14.5 km/h 71 % 0 mm
15:59 23.9 °C 18.3 °C 1024.3 hPa SSE 4.8 km/h 14.5 km/h 71 % 0 mm
16:04 23.9 °C 18.3 °C 1024.3 hPa SSE 4.8 km/h 14.5 km/h 71 % 0 mm
16:09 23.8 °C 18.2 °C 1024.3 hPa SE 11.3 km/h 14.5 km/h 71 % 0 mm
16:14 23.8 °C 18.4 °C 1024.3 hPa ESE 6.4 km/h 14.5 km/h 72 % 0 mm
16:19 23.6 °C 18 °C 1024.3 hPa ESE 4.8 km/h 14.5 km/h 71 % 0 mm
16:24 23.5 °C 18.4 °C 1024.3 hPa SSE 4.8 km/h 17.7 km/h 73 % 0 mm
16:29 23.4 °C 18.1 °C 1024.3 hPa SE 8 km/h 17.7 km/h 72 % 0 mm
16:34 23.4 °C 18.5 °C 1024.3 hPa SE 6.4 km/h 17.7 km/h 74 % 0 mm
16:39 23.3 °C 18.4 °C 1024.3 hPa SSE 4.8 km/h 12.9 km/h 74 % 0 mm
16:45 23.2 °C 18.3 °C 1024.3 hPa SSE 8 km/h 12.9 km/h 74 % 0 mm
16:49 23.1 °C 18.4 °C 1024.3 hPa ESE 4.8 km/h 12.9 km/h 75 % 0 mm
16:55 23 °C 18.5 °C 1024.3 hPa SSE 4.8 km/h 12.9 km/h 76 % 0 mm
17:00 22.8 °C 18.3 °C 1024.3 hPa ESE 6.4 km/h 12.9 km/h 76 % 0 mm
17:05 22.7 °C 18.5 °C 1024.3 hPa SE 4.8 km/h 14.5 km/h 77 % 0 mm
17:10 22.5 °C 18.5 °C 1024.3 hPa ESE 3.2 km/h 14.5 km/h 78 % 0 mm
17:15 22.3 °C 18.5 °C 1024.3 hPa SE 6.4 km/h 14.5 km/h 79 % 0 mm
17:20 22.2 °C 18.6 °C 1024.3 hPa East 8 km/h 11.3 km/h 80 % 0 mm
17:25 22 °C 18.6 °C 1024.3 hPa SE 3.2 km/h 11.3 km/h 81 % 0 mm
17:30 21.8 °C 18.6 °C 1024.3 hPa SE 4.8 km/h 11.3 km/h 82 % 0 mm
17:35 21.7 °C 18.7 °C 1024.3 hPa East 4.8 km/h 11.3 km/h 83 % 0 mm
17:40 21.5 °C 18.7 °C 1024.3 hPa SE 6.4 km/h 12.9 km/h 84 % 0 mm
17:45 21.3 °C 18.5 °C 1024.3 hPa SE 3.2 km/h 12.9 km/h 84 % 0 mm
17:50 21.2 °C 18.6 °C 1024.3 hPa ESE 4.8 km/h 12.9 km/h 85 % 0 mm
17:55 21.1 °C 18.5 °C 1024.3 hPa ESE 3.2 km/h 6.4 km/h 85 % 0 mm
18:00 21 °C 18.6 °C 1024.3 hPa East 3.2 km/h 6.4 km/h 86 % 0 mm
18:05 20.9 °C 18.5 °C 1024.6 hPa SE 3.2 km/h 6.4 km/h 86 % 0 mm
18:10 20.8 °C 18.6 °C 1024.6 hPa ESE 3.2 km/h 6.4 km/h 87 % 0 mm
18:15 20.7 °C 18.5 °C 1024.9 hPa ESE 6.4 km/h 6.4 km/h 87 % 0 mm
18:20 20.7 °C 18.6 °C 1024.6 hPa ESE 6.4 km/h 8 km/h 88 % 0 mm
18:25 20.6 °C 18.5 °C 1024.9 hPa ESE 3.2 km/h 9.7 km/h 88 % 0 mm
18:30 20.5 °C 18.4 °C 1024.6 hPa SE 3.2 km/h 9.7 km/h 88 % 0 mm
18:35 20.4 °C 18.5 °C 1024.9 hPa SSE 3.2 km/h 9.7 km/h 89 % 0 mm
18:40 20.3 °C 18.4 °C 1024.9 hPa SE 1.6 km/h 9.7 km/h 89 % 0 mm
18:45 20.2 °C 18.3 °C 1024.9 hPa SSE 3.2 km/h 8 km/h 89 % 0 mm
18:50 20.2 °C 18.5 °C 1024.9 hPa ESE 3.2 km/h 6.4 km/h 90 % 0 mm
18:55 20.2 °C 18.5 °C 1024.9 hPa SE 4.8 km/h 8 km/h 90 % 0 mm
19:01 20.2 °C 18.5 °C 1024.9 hPa SSE 4.8 km/h 8 km/h 90 % 0 mm
19:06 20.1 °C 18.4 °C 1024.9 hPa ESE 3.2 km/h 8 km/h 90 % 0 mm
19:11 20.1 °C 18.4 °C 1024.9 hPa ESE 6.4 km/h 8 km/h 90 % 0 mm
19:16 20.1 °C 18.4 °C 1024.9 hPa SE 4.8 km/h 12.9 km/h 90 % 0 mm
19:21 20 °C 18.3 °C 1024.9 hPa SSE 1.6 km/h 14.5 km/h 90 % 0 mm
19:26 19.9 °C 18.2 °C 1024.9 hPa ESE 4.8 km/h 14.5 km/h 90 % 0 mm
19:31 19.9 °C 18.2 °C 1024.9 hPa SE 1.6 km/h 14.5 km/h 90 % 0 mm
19:36 19.9 °C 18.4 °C 1024.9 hPa ESE 6.4 km/h 9.7 km/h 91 % 0 mm
19:41 19.8 °C 18.3 °C 1024.9 hPa SSE 1.6 km/h 9.7 km/h 91 % 0 mm
19:46 19.7 °C 18.2 °C 1024.9 hPa ESE 3.2 km/h 8 km/h 91 % 0 mm
19:51 19.7 °C 18.2 °C 1024.9 hPa ESE 4.8 km/h 11.3 km/h 91 % 0 mm
19:56 19.7 °C 18.2 °C 1024.9 hPa NE 3.2 km/h 11.3 km/h 91 % 0 mm
20:01 19.6 °C 18.1 °C 1024.9 hPa East 9.7 km/h 11.3 km/h 91 % 0 mm
20:06 19.6 °C 18.3 °C 1024.9 hPa SE 3.2 km/h 11.3 km/h 92 % 0 mm
20:11 19.5 °C 18 °C 1024.9 hPa ESE 1.6 km/h 11.3 km/h 91 % 0 mm
20:16 19.4 °C 18.1 °C 1024.9 hPa SE 1.6 km/h 11.3 km/h 92 % 0 mm
20:21 19.3 °C 18 °C 1024.9 hPa SE 3.2 km/h 9.7 km/h 92 % 0 mm
20:26 19.3 °C 18 °C 1024.9 hPa SE 4.8 km/h 8 km/h 92 % 0 mm
20:31 19.2 °C 17.9 °C 1024.9 hPa SSE 3.2 km/h 9.7 km/h 92 % 0 mm
20:36 19.1 °C 17.8 °C 1024.9 hPa SE 3.2 km/h 9.7 km/h 92 % 0 mm
20:41 19.1 °C 17.8 °C 1024.9 hPa SE 3.2 km/h 9.7 km/h 92 % 0 mm
20:46 18.9 °C 17.7 °C 1024.9 hPa ENE 3.2 km/h 12.9 km/h 93 % 0 mm
20:51 18.9 °C 17.7 °C 1024.9 hPa SE 3.2 km/h 14.5 km/h 93 % 0 mm
20:56 18.8 °C 17.6 °C 1024.9 hPa SE 1.6 km/h 14.5 km/h 93 % 0 mm
21:01 18.7 °C 17.5 °C 1024.9 hPa SE 1.6 km/h 14.5 km/h 93 % 0 mm
21:06 18.6 °C 17.4 °C 1024.9 hPa East 8 km/h 8 km/h 93 % 0 mm
21:11 18.6 °C 17.4 °C 1024.9 hPa ESE 3.2 km/h 12.9 km/h 93 % 0 mm
21:16 18.4 °C 17.2 °C 1024.9 hPa ESE 6.4 km/h 12.9 km/h 93 % 0 mm
21:21 18.4 °C 17.4 °C 1024.9 hPa ENE 8 km/h 12.9 km/h 94 % 0 mm
21:26 18.3 °C 17.3 °C 1024.9 hPa SE 1.6 km/h 11.3 km/h 94 % 0 mm
21:31 18.3 °C 17.3 °C 1024.9 hPa East 3.2 km/h 11.3 km/h 94 % 0 mm
21:36 18.2 °C 17.2 °C 1024.9 hPa SW 4.8 km/h 11.3 km/h 94 % 0 mm
21:42 18.2 °C 17.2 °C 1024.9 hPa SE 3.2 km/h 9.7 km/h 94 % 0 mm
21:47 18.1 °C 17.3 °C 1024.9 hPa SE 3.2 km/h 8 km/h 95 % 0 mm
21:52 18.1 °C 17.3 °C 1024.9 hPa SE 1.6 km/h 8 km/h 95 % 0 mm
21:57 17.9 °C 17.1 °C 1024.9 hPa Calm   8 km/h 95 % 0 mm
22:02 17.9 °C 17.1 °C 1024.9 hPa SE 3.2 km/h 8 km/h 95 % 0 mm
22:07 17.9 °C 17.1 °C 1024.9 hPa SSE 3.2 km/h 9.7 km/h 95 % 0 mm
22:12 17.8 °C 17 °C 1024.9 hPa ESE 3.2 km/h 9.7 km/h 95 % 0 mm
22:17 17.8 °C 17 °C 1024.9 hPa ESE 3.2 km/h 9.7 km/h 95 % 0 mm
22:22 17.8 °C 17 °C 1024.9 hPa Calm   9.7 km/h 95 % 0 mm
22:27 17.7 °C 17.1 °C 1024.9 hPa ESE 3.2 km/h 9.7 km/h 96 % 0 mm
22:32 17.7 °C 17.1 °C 1024.9 hPa SE 3.2 km/h 4.8 km/h 96 % 0 mm
22:37 17.6 °C 17 °C 1024.9 hPa ESE 3.2 km/h 4.8 km/h 96 % 0 mm
22:42 17.6 °C 17 °C 1024.9 hPa Calm   4.8 km/h 96 % 0 mm
22:47 17.5 °C 16.9 °C 1024.9 hPa East 1.6 km/h 4.8 km/h 96 % 0 mm
22:52 17.4 °C 16.8 °C 1024.6 hPa Calm   4.8 km/h 96 % 0 mm
22:57 17.3 °C 16.7 °C 1024.6 hPa Calm   1.6 km/h 96 % 0 mm
23:02 17.1 °C 16.5 °C 1024.6 hPa Calm   1.6 km/h 96 % 0 mm
23:07 17.2 °C 16.6 °C 1024.3 hPa East 1.6 km/h 1.6 km/h 96 % 0 mm
23:12 17.2 °C 16.7 °C 1024.3 hPa Calm   1.6 km/h 97 % 0 mm
23:17 17.2 °C 16.7 °C 1024.3 hPa Calm   1.6 km/h 97 % 0 mm
23:22 17.2 °C 16.7 °C 1024.3 hPa East 1.6 km/h 4.8 km/h 97 % 0 mm
23:27 17.2 °C 16.7 °C 1024.3 hPa Calm   4.8 km/h 97 % 0 mm
23:32 17.1 °C 16.5 °C 1023.9 hPa Calm   4.8 km/h 96 % 0 mm
23:37 16.9 °C 16.3 °C 1023.9 hPa Calm   4.8 km/h 96 % 0 mm
23:42 16.9 °C 16.3 °C 1023.6 hPa Calm   1.6 km/h 96 % 0 mm
23:47 16.8 °C 16.3 °C 1023.6 hPa Calm   1.6 km/h 97 % 0 mm
23:52 16.7 °C 16.2 °C 1023.6 hPa Calm   3.2 km/h 97 % 0 mm
23:57 16.7 °C 16.2 °C 1023.6 hPa Calm   3.2 km/h 97 % 0 mm
Spring, Texas: Villages of Bridgestone
Compliments of Weather Underground - 2.75 mb

Script developed by  Jim McMurry - jmcmurry@mwt.net Adapted for the template by  Wim van der Kuil - Leuven-Template.eu

You find our weather info also at:

UK Metoffice

WeatherCloud

Weather Underground

Mid-South Weather Network

AWEKAS

Citizen Weather Observer Program (CWOP)

HAMweather, WeatherForYou, PWS Weather

Equipment we use:

Weather-station
Davis Vantage Vue

Weather-program
Meteohub

Weather-server
Debian 7.9 x86 (Guest)

Provider
DreamHost

Davis Vantage Vue

Meteohub

Debian 7.9 x86 (Guest)

DreamHost